Dewpoint
69 68 67 66 67 67 67 67 66 68 69 71 72 72 72 70 69 69 67 64 62 63
69 68 67 67 67 68 69 69 71 71 71 72 72 72 69 67 66 64 63 61 61 59
68 69 68 68 67 68 69 70 70 71 72 71 71 69 67 65 64 63 63 61 58 58
68 68 68 68 68 67 69 69 70 71 71 69 68 67 65 63 62 60 58 58 56 56
67 68 69 68 67 70 69 71 72 71 68 68 67 66 64 62 61 60 59 58 57 57
67 68 67 66 69 70 70 71 71 68 66 65 65 63 62 62 62 61 59 56 55 56
67 67 67 67 69 70 71 71 69 67 66 65 64 62 62 59 59 58 54 53 54 55
67 65 67 69 70 72 70 69 67 66 66 65 63 62 60 57 56 52 51 51 51 51
65 63 66 67 71 70 69 67 66 66 65 64 62 63 60 54 49 49 48 51 54 55
63 65 68 71 70 69 67 66 65 65 62 61 61 62 59 55 52 49 49 52 54 55
65 70 71 70 69 68 66 66 65 62 60 59 58 62 59 57 52 52 53 55 56 54
69 70 70 69 68 67 66 66 63 60 59 57 54 58 61 58 57 57 56 58 53 49
71 70 70 69 68 67 66 66 62 60 58 57 52 56 57 56 55 53 52 50 48 46
71 71 70 69 68 66 65 64 62 60 58 57 53 54 55 55 55 52 51 49 45 42
Wind_Speed
17 17 16 13 10 11 12 11 11 11 10 9 7 5 4 4 5 9 8 7 7 5
16 16 17 15 10 7 9 7 8 6 9 5 5 8 9 9 11 13 9 8 9 11
18 16 15 12 13 8 5 4 5 6 6 7 8 12 13 11 11 14 9 8 11 11
15 13 12 12 12 7 3 6 4 7 12 10 13 13 14 13 13 15 13 10 12 13
16 14 14 14 11 7 4 9 10 13 10 10 13 12 14 13 11 13 13 11 12 12
19 16 16 13 10 10 7 12 13 11 12 12 12 13 14 14 13 13 11 10 12 10
18 19 16 15 13 11 11 14 15 11 13 13 13 14 15 16 14 12 10 10 11 10
17 17 15 14 11 11 14 14 14 14 12 13 12 13 16 14 13 14 13 10 13 12
19 18 17 13 15 14 13 14 15 13 14 13 10 16 18 16 16 14 14 15 12 12
20 18 16 17 18 17 18 15 15 12 15 15 13 20 20 18 15 14 13 13 11 9
21 19 18 19 19 17 17 18 16 16 16 16 12 20 23 19 15 13 13 13 10 11
21 22 22 21 20 18 17 16 18 17 18 17 12 16 21 18 14 14 11 14 13 12
22 23 23 21 21 18 17 17 17 18 17 17 15 11 22 21 17 17 14 10 11 12
23 24 22 21 19 18 17 17 18 18 15 16 18 14 21 22 19 18 16 15 13 10
Wind_Direction
203 207 218 214 219 227 233 236 243 242 224 231 235 221 148 113 102 104 95 78 68 76
203 204 212 220 221 239 228 217 209 180 192 184 174 137 120 110 112 95 84 76 82 90
201 201 204 205 206 203 204 210 215 179 149 129 138 130 117 116 106 97 87 82 88 87
189 191 187 189 190 185 186 230 218 169 134 132 127 120 120 116 113 105 99 82 86 84
175 175 172 174 170 151 139 80 117 116 132 131 125 130 128 115 114 112 106 99 90 83
179 173 176 174 165 154 136 114 124 148 137 122 132 133 119 123 118 114 109 105 100 98
178 178 175 169 175 167 147 143 154 148 137 137 140 129 131 126 120 113 106 99 99 100
174 174 165 165 178 182 150 153 147 146 150 141 142 140 141 136 130 123 112 102 98 99
178 174 175 177 176 161 155 150 155 161 155 157 167 158 153 142 132 136 135 120 104 95
178 178 181 167 162 163 158 160 164 165 161 170 173 163 159 152 149 154 144 134 128 120
168 170 166 164 169 165 162 171 170 170 169 170 179 169 166 161 156 160 164 165 153 145
168 166 167 170 170 170 173 170 173 172 172 173 176 183 169 160 151 159 164 181 167 164
172 170 174 172 172 176 179 174 172 179 179 180 176 173 162 152 151 154 158 159 172 180
170 172 173 169 172 174 174 168 177 182 185 188 179 171 167 164 165 169 172 173 185 185